Back to catalog

STARLINK-37936

AliveCommunicationsSSO
NORAD 69563·PAYLOAD·🇺🇸 United States

Launched Jun 15, 2026 from Vandenberg Space Force Base

Loading…

Next Passes (next 24 hours)

TLE

FreshSource: CelesTrak SupGP

Epoch: Sep 14, 2026, 15:12 UTC

1 69563C 26135T   26257.63381944 -.00023872  00000+0 -74089-3 0  2577
2 69563  97.2842 285.4440 0001009 101.1260 265.3179 15.33458346    17

Track STARLINK-37936 in real time with AllMySat

Download on the App Store